QPF
0.00 0.00 0.00 0.00 0.00 0.00 0.00 0.00 0.00 0.03 0.04 0.03 0.02 0.00 0.00 0.00 0.00 0.00 0.07 0.15 0.11 0.00 0.01 0.03 0.00 0.00 0.00 0.00 0.00 0.00 0.00 0.00 0.00 0.00 0.00 0.00 0.00 0.00 0.00 0.00 0.00 0.00 0.00
0.00 0.00 0.00 0.00 0.00 0.00 0.00 0.00 0.00 0.02 0.04 0.00 0.00 0.00 0.00 0.00 0.00 0.03 0.11 0.17 0.10 0.02 0.03 0.12 0.02 0.00 0.00 0.00 0.00 0.00 0.00 0.00 0.00 0.00 0.00 0.00 0.00 0.00 0.00 0.00 0.00 0.00 0.00
0.00 0.00 0.00 0.00 0.00 0.00 0.00 0.00 0.00 0.00 0.01 0.00 0.00 0.00 0.00 0.00 0.00 0.00 0.02 0.04 0.01 0.01 0.05 0.03 0.00 0.00 0.00 0.00 0.00 0.00 0.00 0.00 0.00 0.00 0.00 0.00 0.00 0.00 0.00 0.00 0.00 0.00 0.00
0.00 0.00 0.00 0.00 0.00 0.00 0.00 0.00 0.00 0.00 0.00 0.00 0.00 0.00 0.00 0.00 0.00 0.01 0.03 0.03 0.12 0.09 0.00 0.00 0.00 0.00 0.00 0.00 0.00 0.00 0.00 0.00 0.00 0.00 0.00 0.00 0.00 0.00 0.00 0.00 0.00 0.00 0.00
0.00 0.00 0.00 0.00 0.00 0.00 0.00 0.00 0.00 0.00 0.00 0.00 0.00 0.00 0.00 0.00 0.01 0.07 0.11 0.20 0.17 0.04 0.00 0.00 0.00 0.00 0.00 0.00 0.00 0.00 0.00 0.00 0.00 0.00 0.00 0.00 0.00 0.00 0.00 0.00 0.00 0.00 0.00
0.00 0.00 0.00 0.00 0.00 0.00 0.00 0.00 0.00 0.00 0.00 0.00 0.00 0.00 0.00 0.00 0.03 0.12 0.26 0.23 0.06 0.00 0.00 0.00 0.00 0.00 0.00 0.00 0.00 0.00 0.00 0.00 0.00 0.00 0.00 0.00 0.00 0.00 0.00 0.00 0.00 0.00 0.00
0.00 0.00 0.00 0.00 0.00 0.00 0.00 0.00 0.00 0.00 0.00 0.00 0.00 0.00 0.00 0.04 0.08 0.14 0.16 0.07 0.00 0.00 0.00 0.00 0.00 0.00 0.00 0.00 0.00 0.00 0.00 0.00 0.00 0.00 0.00 0.00 0.00 0.00 0.00 0.00 0.00 0.00 0.00
0.00 0.00 0.00 0.00 0.00 0.00 0.00 0.00 0.00 0.00 0.00 0.00 0.00 0.00 0.00 0.01 0.01 0.04 0.08 0.01 0.00 0.00 0.00 0.00 0.00 0.00 0.00 0.00 0.00 0.00 0.00 0.00 0.00 0.00 0.00 0.00 0.00 0.00 0.00 0.00 0.00 0.00 0.00
0.00 0.00 0.00 0.00 0.00 0.00 0.00 0.00 0.00 0.00 0.00 0.00 0.00 0.00 0.00 0.00 0.01 0.01 0.03 0.00 0.00 0.00 0.00 0.00 0.00 0.00 0.00 0.00 0.00 0.00 0.00 0.00 0.00 0.00 0.00 0.00 0.00 0.00 0.00 0.00 0.00 0.00 0.00
0.00 0.00 0.00 0.00 0.00 0.00 0.00 0.00 0.00 0.00 0.00 0.00 0.00 0.00 0.01 0.02 0.00 0.01 0.02 0.00 0.00 0.00 0.00 0.00 0.00 0.00 0.00 0.00 0.00 0.00 0.00 0.00 0.00 0.00 0.00 0.00 0.00 0.00 0.00 0.00 0.00 0.00 0.00
0.00 0.00 0.00 0.00 0.00 0.00 0.00 0.00 0.00 0.00 0.00 0.00 0.00 0.00 0.00 0.01 0.00 0.00 0.00 0.00 0.00 0.00 0.00 0.00 0.00 0.00 0.00 0.00 0.00 0.00 0.00 0.00 0.00 0.00 0.00 0.00 0.00 0.00 0.00 0.00 0.00 0.00 0.00
0.00 0.00 0.00 0.00 0.00 0.00 0.00 0.00 0.00 0.00 0.00 0.00 0.00 0.00 0.00 0.00 0.00 0.00 0.00 0.00 0.00 0.00 0.00 0.00 0.00 0.00 0.00 0.00 0.00 0.00 0.00 0.00 0.00 0.00 0.00 0.00 0.00 0.00 0.00 0.00 0.00 0.00 0.00
0.00 0.00 0.00 0.00 0.00 0.00 0.00 0.00 0.00 0.00 0.00 0.00 0.00 0.00 0.00 0.00 0.00 0.00 0.00 0.00 0.00 0.00 0.00 0.00 0.00 0.00 0.00 0.00 0.00 0.00 0.00 0.00 0.00 0.00 0.00 0.00 0.00 0.00 0.00 0.00 0.00 0.00 0.00
0.00 0.00 0.00 0.00 0.00 0.00 0.00 0.00 0.00 0.00 0.00 0.00 0.00 0.00 0.00 0.00 0.00 0.00 0.00 0.00 0.00 0.00 0.00 0.00 0.00 0.00 0.00 0.00 0.00 0.00 0.00 0.00 0.00 0.00 0.00 0.00 0.00 0.00 0.00 0.00 0.00 0.00 0.00
0.00 0.00 0.00 0.00 0.00 0.00 0.00 0.00 0.00 0.00 0.00 0.00 0.00 0.00 0.00 0.00 0.01 0.00 0.00 0.00 0.00 0.00 0.00 0.00 0.00 0.00 0.00 0.00 0.00 0.00 0.00 0.00 0.00 0.00 0.00 0.00 0.00 0.00 0.00 0.00 0.00 0.00 0.00
0.00 0.00 0.00 0.00 0.00 0.00 0.00 0.00 0.00 0.00 0.00 0.00 0.00 0.00 0.00 0.01 0.02 0.00 0.00 0.00 0.00 0.00 0.00 0.00 0.00 0.00 0.00 0.00 0.00 0.00 0.00 0.00 0.00 0.00 0.00 0.00 0.00 0.00 0.00 0.00 0.00 0.00 0.00
0.00 0.00 0.00 0.00 0.00 0.00 0.00 0.00 0.00 0.00 0.00 0.00 0.00 0.00 0.00 0.00 0.02 0.05 0.01 0.00 0.00 0.00 0.00 0.00 0.00 0.00 0.00 0.00 0.00 0.00 0.00 0.00 0.00 0.00 0.00 0.00 0.00 0.00 0.00 0.00 0.00 0.00 0.00
0.00 0.00 0.00 0.00 0.00 0.00 0.00 0.00 0.00 0.00 0.00 0.00 0.00 0.02 0.02 0.02 0.03 0.06 0.07 0.04 0.01 0.00 0.00 0.00 0.00 0.00 0.00 0.00 0.00 0.00 0.00 0.00 0.00 0.00 0.00 0.00 0.00 0.00 0.00 0.00 0.00 0.00 0.00
0.00 0.00 0.00 0.00 0.00 0.00 0.00 0.00 0.00 0.00 0.00 0.00 0.00 0.00 0.00 0.03 0.08 0.06 0.03 0.01 0.00 0.00 0.00 0.00 0.00 0.00 0.00 0.00 0.00 0.00 0.00 0.00 0.00 0.00 0.00 0.00 0.00 0.00 0.00 0.00 0.00 0.00 0.00
0.00 0.00 0.00 0.00 0.00 0.00 0.00 0.00 0.00 0.00 0.00 0.00 0.00 0.01 0.06 0.15 0.10 0.07 0.05 0.03 0.01 0.00 0.00 0.00 0.02 0.02 0.01 0.00 0.00 0.00 0.00 0.00 0.00 0.00 0.00 0.00 0.00 0.00 0.00 0.00 0.00 0.00 0.00
0.00 0.00 0.00 0.00 0.00 0.00 0.00 0.00 0.00 0.00 0.00 0.00 0.00 0.00 0.04 0.08 0.09 0.07 0.04 0.01 0.01 0.01 0.01 0.01 0.03 0.02 0.01 0.00 0.00 0.00 0.00 0.00 0.00 0.00 0.00 0.00 0.00 0.00 0.00 0.00 0.00 0.00 0.00
0.00 0.00 0.00 0.00 0.00 0.00 0.00 0.00 0.00 0.00 0.00 0.00 0.00 0.00 0.01 0.01 0.02 0.05 0.05 0.02 0.02 0.03 0.04 0.07 0.06 0.04 0.03 0.00 0.00 0.00 0.00 0.00 0.00 0.00 0.00 0.00 0.00 0.00 0.00 0.00 0.00 0.00 0.00
0.00 0.00 0.00 0.00 0.00 0.00 0.00 0.00 0.00 0.00 0.00 0.00 0.00 0.00 0.00 0.00 0.00 0.01 0.02 0.03 0.04 0.05 0.06 0.05 0.04 0.03 0.02 0.00 0.00 0.00 0.00 0.00 0.00 0.00 0.00 0.00 0.00 0.00 0.00 0.00 0.00 0.00 0.00
0.00 0.00 0.00 0.00 0.00 0.00 0.00 0.00 0.00 0.00 0.00 0.00 0.00 0.00 0.00 0.00 0.00 0.00 0.00 0.01 0.02 0.03 0.03 0.03 0.02 0.01 0.00 0.00 0.00 0.00 0.00 0.00 0.00 0.00 0.00 0.00 0.00 0.00 0.00 0.00 0.00 0.00 0.00
0.00 0.00 0.00 0.00 0.00 0.00 0.00 0.00 0.00 0.00 0.00 0.00 0.00 0.00 0.00 0.00 0.00 0.00 0.00 0.01 0.02 0.02 0.01 0.01 0.01 0.00 0.00 0.00 0.00 0.00 0.00 0.00 0.00 0.00 0.00 0.00 0.00 0.00 0.00 0.00 0.00 0.00 0.00
0.00 0.00 0.00 0.00 0.00 0.00 0.00 0.00 0.00 0.00 0.00 0.00 0.00 0.00 0.00 0.00 0.00 0.00 0.00 0.00 0.00 0.00 0.00 0.00 0.00 0.00 0.00 0.00 0.00 0.00 0.00 0.00 0.00 0.00 0.00 0.00 0.00 0.00 0.00 0.00 0.00 0.00 0.00
MSLP
1010.26 1010.89 1011.55 1012.24 1012.96 1013.63 1014.07 1014.41 1014.90 1015.54 1015.94 1016.25 1016.66 1016.78 1016.99 1017.03 1017.15 1017.32 1017.53 1017.68 1017.78 1017.62 1017.59 1017.79 1017.83 1017.83 1017.96 1018.21 1018.37 1018.38 1018.51 1018.69 1018.62 1018.22 1018.16 1017.77 1017.58 1017.45 1017.26 1017.42 1017.47 1017.44 1017.44
1009.46 1010.44 1010.95 1011.79 1012.60 1013.22 1013.68 1013.99 1014.57 1015.03 1015.59 1016.01 1016.16 1016.42 1016.58 1016.74 1016.92 1017.12 1017.26 1017.34 1017.40 1017.37 1017.39 1017.64 1017.65 1017.64 1017.90 1018.00 1018.07 1018.13 1018.30 1018.51 1018.51 1018.40 1018.17 1017.93 1017.74 1017.46 1017.38 1017.39 1017.36 1017.28 1017.24
1009.02 1009.97 1010.65 1011.31 1012.10 1012.59 1013.11 1013.71 1014.26 1014.73 1015.17 1015.61 1015.86 1015.94 1016.09 1016.41 1016.70 1017.10 1016.92 1017.12 1017.14 1017.16 1017.33 1017.58 1017.59 1017.76 1017.83 1017.95 1018.04 1018.10 1018.25 1018.34 1018.37 1018.39 1018.23 1018.15 1017.87 1017.67 1017.45 1017.37 1017.24 1017.05 1016.92
1008.56 1009.49 1010.20 1010.69 1011.37 1011.92 1012.48 1013.23 1013.79 1014.26 1014.75 1015.15 1015.40 1015.63 1015.97 1016.29 1016.61 1016.96 1017.03 1017.23 1017.20 1017.28 1017.53 1017.64 1017.77 1017.83 1017.87 1017.94 1017.96 1018.04 1018.16 1018.30 1018.36 1018.30 1018.28 1018.19 1018.10 1017.85 1017.55 1017.40 1017.23 1017.11 1016.84
1008.28 1008.96 1009.57 1010.05 1010.87 1011.57 1012.08 1012.67 1013.30 1013.88 1014.33 1014.75 1015.24 1015.66 1016.05 1016.41 1016.58 1016.76 1017.04 1016.87 1016.99 1017.30 1017.65 1017.71 1017.83 1017.92 1017.91 1018.06 1018.11 1018.11 1018.30 1018.32 1018.37 1018.28 1018.17 1018.18 1017.94 1017.67 1017.62 1017.70 1017.60 1017.55 1017.41
1007.82 1008.47 1009.20 1009.72 1010.42 1011.13 1011.69 1012.15 1012.73 1013.41 1013.94 1014.48 1014.81 1015.11 1015.50 1015.82 1015.91 1016.34 1016.60 1016.76 1016.96 1017.19 1017.66 1017.97 1018.10 1018.14 1018.21 1018.27 1018.20 1018.19 1018.23 1018.28 1018.34 1018.25 1018.20 1018.06 1017.86 1017.82 1017.78 1017.99 1018.12 1018.02 1017.94
1007.18 1008.12 1008.78 1009.28 1010.05 1010.64 1011.22 1011.88 1012.35 1012.86 1013.49 1014.01 1014.30 1014.62 1014.93 1015.26 1015.44 1015.72 1016.05 1016.22 1016.63 1017.16 1017.62 1017.86 1018.08 1018.33 1018.31 1018.40 1018.24 1018.30 1018.23 1018.17 1018.09 1017.99 1017.96 1017.97 1017.92 1017.91 1017.86 1017.88 1018.03 1018.07 1017.99
1006.67 1007.51 1008.21 1008.72 1009.51 1010.11 1010.71 1011.29 1011.77 1012.40 1012.83 1013.23 1013.55 1013.92 1014.37 1014.66 1015.04 1015.55 1015.80 1016.07 1016.55 1016.96 1017.25 1017.53 1017.94 1018.10 1018.24 1018.31 1018.40 1018.38 1018.37 1018.23 1018.05 1017.90 1017.83 1017.75 1017.68 1017.69 1017.82 1017.85 1017.95 1018.02 1017.92
1006.08 1006.78 1007.36 1008.04 1008.80 1009.39 1009.88 1010.40 1010.98 1011.59 1012.06 1012.61 1012.98 1013.40 1013.74 1014.03 1014.53 1015.13 1015.59 1016.08 1016.55 1016.79 1017.01 1017.41 1017.74 1018.06 1018.29 1018.36 1018.41 1018.43 1018.37 1018.12 1017.88 1017.75 1017.72 1017.73 1017.56 1017.31 1017.23 1017.51 1017.72 1017.77 1017.69
1005.30 1005.70 1006.43 1007.19 1007.88 1008.45 1008.90 1009.58 1010.29 1010.91 1011.48 1012.10 1012.48 1012.68 1012.98 1013.64 1013.80 1014.45 1015.01 1015.55 1016.10 1016.65 1017.15 1017.41 1017.85 1017.98 1018.18 1018.32 1018.35 1018.46 1018.40 1018.22 1018.04 1017.91 1018.00 1017.79 1017.79 1017.84 1017.74 1017.53 1017.61 1017.70 1017.91
1004.27 1005.07 1005.88 1006.35 1006.73 1007.31 1008.15 1008.92 1009.61 1010.25 1010.95 1011.56 1011.94 1012.17 1012.61 1012.93 1013.49 1014.07 1014.68 1014.97 1015.38 1016.23 1016.81 1017.40 1017.81 1017.99 1018.14 1018.38 1018.41 1018.46 1018.47 1018.55 1018.42 1018.40 1018.41 1018.46 1018.39 1018.40 1018.39 1018.33 1018.01 1017.87 1017.94
1003.72 1004.44 1005.12 1005.69 1006.19 1006.89 1007.55 1008.44 1009.17 1009.81 1010.40 1010.95 1011.40 1011.77 1012.23 1012.80 1013.05 1013.67 1014.14 1014.51 1015.08 1015.69 1016.16 1016.85 1017.47 1017.78 1018.09 1018.34 1018.46 1018.48 1018.63 1018.71 1018.91 1018.88 1018.70 1018.75 1018.73 1018.77 1018.87 1018.83 1018.76 1018.58 1018.54
1003.19 1003.84 1004.44 1005.18 1005.90 1006.38 1007.13 1008.02 1008.87 1009.44 1009.95 1010.47 1010.87 1011.27 1011.61 1012.31 1012.97 1013.32 1013.88 1014.29 1014.67 1015.29 1015.87 1016.52 1017.18 1017.84 1018.20 1018.50 1018.70 1018.54 1018.74 1019.02 1019.08 1018.97 1019.13 1019.28 1019.40 1019.44 1019.22 1019.04 1019.07 1019.15 1019.20
1002.36 1003.16 1003.87 1004.52 1005.35 1006.08 1006.79 1007.62 1008.26 1008.78 1009.33 1009.85 1010.36 1010.71 1011.22 1011.89 1012.68 1013.32 1014.01 1014.40 1014.75 1015.22 1015.76 1016.50 1017.05 1017.63 1018.05 1018.39 1018.67 1018.62 1018.72 1018.89 1018.87 1018.94 1019.21 1019.51 1019.53 1019.42 1019.36 1019.38 1019.45 1019.53 1019.39
1001.80 1002.64 1003.48 1004.23 1005.04 1005.91 1006.61 1007.27 1007.53 1007.64 1007.92 1008.59 1009.06 1009.57 1010.35 1011.05 1011.23 1011.85 1012.55 1013.75 1014.01 1014.69 1015.77 1016.75 1017.33 1017.58 1017.74 1017.97 1018.41 1018.87 1018.88 1019.05 1019.05 1019.14 1019.18 1019.36 1019.56 1019.49 1019.40 1019.45 1019.52 1019.55 1019.50
1001.58 1002.27 1002.87 1003.64 1004.56 1005.29 1006.48 1007.53 1007.80 1007.63 1007.62 1007.81 1008.11 1008.42 1009.10 1009.43 1010.28 1011.15 1012.13 1012.38 1013.56 1013.83 1014.75 1015.61 1016.57 1017.04 1017.20 1017.46 1017.82 1018.29 1018.81 1018.88 1019.14 1019.45 1019.43 1019.38 1019.36 1019.23 1019.24 1019.40 1019.48 1019.56 1019.68
1001.10 1001.95 1002.60 1003.18 1003.75 1004.51 1005.61 1006.58 1007.43 1007.97 1007.89 1008.01 1008.13 1008.53 1008.93 1009.19 1009.94 1010.53 1011.22 1011.60 1012.02 1013.06 1013.08 1014.24 1014.88 1015.68 1016.36 1017.02 1017.27 1017.39 1017.90 1018.46 1018.88 1019.12 1019.11 1019.19 1019.18 1019.16 1019.27 1019.36 1019.43 1019.56 1019.68
999.92 1001.61 1002.39 1003.07 1003.83 1004.50 1005.09 1005.76 1006.40 1007.11 1007.63 1008.02 1008.15 1008.40 1008.66 1009.11 1009.52 1009.87 1010.79 1012.34 1013.50 1012.74 1012.04 1012.14 1013.20 1014.33 1014.93 1015.90 1016.68 1017.03 1017.26 1017.95 1018.47 1018.64 1018.82 1018.88 1018.96 1019.08 1019.27 1019.46 1019.56 1019.61 1019.74
1000.49 1002.24 1002.15 1002.82 1003.66 1004.25 1004.89 1005.43 1005.93 1006.49 1006.99 1007.38 1008.07 1008.78 1009.24 1009.50 1010.22 1011.09 1011.55 1010.82 1011.56 1011.89 1012.05 1010.96 1011.82 1012.67 1013.55 1014.61 1015.70 1016.27 1016.63 1017.01 1017.58 1018.16 1018.38 1018.63 1018.86 1018.97 1019.11 1019.31 1019.47 1019.39 1019.46
1001.80 1002.13 1001.69 1002.93 1003.64 1004.13 1004.73 1005.20 1005.62 1006.01 1006.43 1006.83 1007.34 1007.87 1008.85 1009.64 1010.21 1010.57 1011.08 1010.96 1010.81 1010.86 1010.68 1010.57 1010.92 1011.64 1012.52 1013.66 1014.85 1015.42 1015.87 1016.36 1016.84 1017.30 1017.87 1018.35 1018.62 1018.90 1018.87 1019.05 1019.29 1019.32 1019.29
1001.43 1002.00 1002.59 1003.09 1003.38 1003.88 1004.34 1004.80 1005.25 1005.58 1005.85 1006.16 1006.48 1007.20 1007.54 1008.40 1008.90 1009.22 1009.56 1009.24 1009.26 1009.45 1009.63 1009.91 1010.13 1011.11 1011.63 1012.72 1013.66 1014.31 1014.91 1015.38 1016.08 1016.74 1017.42 1017.98 1018.32 1018.60 1018.94 1019.11 1019.19 1019.33 1019.24
1001.57 1002.17 1002.63 1003.07 1003.48 1003.79 1004.02 1004.44 1004.89 1005.29 1005.56 1005.82 1006.27 1007.08 1007.37 1007.81 1008.06 1008.28 1008.24 1008.06 1007.95 1008.13 1008.32 1009.11 1009.60 1010.38 1011.03 1011.80 1012.46 1012.96 1013.79 1014.32 1015.36 1016.18 1016.78 1017.38 1017.91 1018.26 1018.74 1019.08 1019.24 1019.23 1019.23
1001.70 1002.25 1002.76 1003.10 1003.30 1003.60 1003.97 1004.28 1004.64 1004.92 1005.11 1005.32 1005.85 1006.53 1007.09 1007.33 1007.55 1007.63 1007.47 1007.10 1007.14 1007.28 1007.62 1008.29 1009.11 1009.82 1010.42 1010.84 1011.20 1011.76 1012.74 1013.26 1014.06 1015.22 1016.07 1016.60 1017.22 1017.87 1018.32 1018.52 1018.92 1019.09 1019.05
1001.85 1002.36 1002.65 1002.93 1003.23 1003.56 1003.82 1004.08 1004.38 1004.61 1004.77 1005.00 1005.31 1005.72 1006.11 1006.37 1006.76 1006.90 1006.80 1006.44 1006.55 1006.70 1006.76 1007.10 1008.00 1009.05 1009.70 1010.18 1010.73 1011.03 1011.77 1012.26 1013.25 1014.37 1015.28 1016.07 1016.74 1017.45 1017.99 1018.25 1018.54 1018.79 1018.80
1001.52 1002.06 1002.35 1002.58 1002.96 1003.24 1003.49 1003.68 1003.94 1004.29 1004.55 1004.62 1004.90 1005.27 1005.64 1005.86 1006.15 1006.24 1006.48 1006.39 1006.24 1006.44 1006.79 1006.53 1007.44 1008.39 1008.82 1009.21 1009.68 1010.17 1010.90 1011.80 1012.67 1013.68 1014.67 1015.42 1016.16 1016.72 1017.28 1017.69 1018.02 1018.26 1018.47
1000.96 1001.41 1001.89 1002.33 1002.60 1002.72 1002.89 1003.13 1003.30 1003.59 1003.90 1004.07 1004.12 1004.40 1004.75 1005.04 1005.41 1005.65 1005.73 1006.15 1006.18 1006.13 1006.05 1005.83 1006.48 1006.86 1007.72 1008.53 1008.92 1009.66 1010.41 1011.42 1012.36 1013.14 1013.91 1014.88 1015.78 1016.29 1016.84 1017.33 1017.69 1017.92 1017.99
Thickness
5809 5804 5797 5789 5784 5779 5777 5775 5772 5768 5765 5762 5758 5757 5758 5761 5763 5764 5766 5766 5766 5768 5769 5769 5768 5769 5767 5765 5763 5762 5759 5755 5750 5756 5757 5759 5758 5758 5758 5756 5754 5753 5752
5814 5806 5800 5790 5782 5779 5777 5775 5772 5770 5767 5764 5763 5761 5762 5763 5765 5765 5766 5767 5768 5768 5769 5768 5767 5770 5766 5766 5765 5763 5760 5757 5753 5750 5754 5755 5755 5757 5756 5754 5753 5752 5753
5815 5807 5800 5792 5782 5780 5778 5775 5773 5771 5769 5767 5766 5765 5764 5764 5764 5764 5767 5768 5769 5770 5768 5767 5768 5766 5764 5764 5764 5762 5760 5758 5756 5753 5751 5752 5754 5755 5755 5755 5755 5755 5755
5817 5809 5802 5796 5789 5785 5783 5777 5775 5774 5771 5770 5770 5769 5768 5766 5765 5765 5767 5766 5766 5766 5765 5766 5766 5764 5764 5763 5763 5762 5760 5756 5755 5754 5752 5751 5750 5753 5755 5754 5754 5756 5756
5816 5810 5805 5801 5793 5786 5784 5780 5778 5775 5773 5771 5769 5768 5767 5764 5765 5766 5764 5765 5765 5763 5762 5764 5764 5764 5763 5763 5761 5760 5757 5755 5752 5751 5751 5750 5752 5754 5754 5753 5751 5751 5751
5819 5813 5806 5801 5794 5788 5785 5783 5779 5776 5774 5771 5771 5771 5769 5769 5771 5768 5765 5764 5763 5762 5759 5760 5760 5760 5760 5759 5759 5759 5758 5755 5752 5751 5750 5749 5751 5752 5751 5748 5744 5743 5739
5824 5815 5808 5803 5796 5791 5787 5784 5780 5777 5775 5773 5773 5773 5773 5773 5774 5771 5768 5767 5763 5761 5759 5759 5759 5758 5758 5757 5757 5757 5757 5756 5756 5755 5752 5749 5748 5748 5749 5748 5745 5743 5741
5827 5819 5812 5806 5799 5796 5792 5788 5784 5779 5777 5776 5776 5777 5776 5776 5773 5769 5767 5767 5764 5762 5762 5761 5759 5758 5758 5756 5755 5755 5754 5754 5755 5755 5752 5751 5750 5749 5749 5747 5744 5743 5743
5831 5825 5819 5812 5804 5802 5799 5795 5791 5785 5782 5780 5780 5779 5778 5778 5775 5772 5769 5766 5763 5763 5762 5760 5758 5757 5755 5753 5754 5752 5752 5754 5754 5753 5752 5752 5752 5753 5752 5749 5744 5741 5740
5837 5835 5829 5822 5814 5809 5807 5803 5798 5793 5789 5787 5784 5786 5785 5781 5779 5776 5775 5770 5764 5761 5758 5757 5755 5755 5753 5752 5752 5750 5749 5750 5750 5749 5748 5748 5749 5747 5747 5746 5744 5739 5735
5846 5841 5834 5830 5826 5821 5815 5810 5805 5800 5795 5791 5789 5790 5788 5781 5782 5778 5775 5774 5769 5761 5758 5755 5754 5752 5752 5750 5750 5749 5748 5746 5745 5743 5741 5741 5741 5740 5739 5738 5738 5738 5734
5848 5844 5839 5835 5831 5826 5821 5815 5809 5805 5800 5796 5794 5792 5791 5788 5786 5779 5777 5775 5770 5764 5760 5756 5752 5750 5748 5747 5747 5746 5744 5742 5739 5737 5737 5735 5735 5734 5732 5730 5728 5727 5724
5849 5845 5842 5837 5832 5830 5824 5818 5812 5808 5804 5799 5797 5794 5793 5789 5785 5780 5775 5773 5770 5766 5761 5755 5750 5745 5742 5740 5739 5741 5739 5736 5734 5732 5729 5727 5726 5724 5723 5723 5720 5716 5712
5851 5847 5843 5839 5834 5830 5827 5823 5817 5812 5807 5803 5798 5795 5793 5789 5783 5778 5773 5769 5765 5762 5757 5750 5746 5743 5740 5737 5734 5735 5734 5732 5731 5729 5725 5720 5719 5719 5717 5714 5711 5706 5703
5851 5847 5842 5839 5833 5827 5826 5823 5822 5821 5819 5812 5808 5804 5793 5787 5791 5788 5782 5772 5770 5762 5752 5743 5738 5736 5736 5736 5731 5726 5727 5725 5724 5722 5720 5717 5712 5711 5710 5707 5703 5699 5696
5846 5844 5843 5839 5833 5828 5819 5813 5810 5813 5815 5814 5813 5812 5806 5802 5793 5786 5779 5777 5767 5765 5756 5747 5737 5734 5733 5732 5731 5725 5719 5718 5716 5712 5712 5711 5709 5707 5705 5700 5696 5691 5687
5843 5841 5839 5837 5836 5830 5823 5816 5810 5806 5805 5805 5804 5802 5799 5797 5786 5781 5778 5774 5770 5764 5766 5754 5746 5739 5732 5726 5724 5725 5721 5714 5710 5707 5707 5705 5703 5700 5698 5694 5690 5685 5681
5835 5835 5835 5833 5829 5824 5822 5817 5814 5806 5802 5799 5796 5794 5790 5785 5780 5775 5767 5757 5746 5753 5761 5760 5751 5741 5736 5726 5719 5718 5718 5710 5705 5704 5702 5700 5697 5693 5689 5685 5681 5677 5673
5836 5827 5833 5829 5824 5820 5817 5812 5808 5802 5797 5793 5787 5779 5774 5770 5764 5755 5752 5762 5755 5750 5746 5756 5750 5742 5736 5728 5720 5716 5715 5712 5705 5700 5697 5693 5689 5686 5683 5678 5674 5669 5666
5821 5820 5830 5822 5816 5813 5809 5804 5799 5795 5791 5788 5785 5782 5769 5762 5758 5753 5746 5748 5748 5745 5743 5741 5740 5737 5733 5724 5715 5713 5710 5707 5703 5699 5692 5686 5682 5679 5677 5672 5668 5666 5662
5817 5816 5814 5812 5811 5808 5804 5799 5794 5790 5787 5785 5783 5778 5770 5765 5759 5753 5745 5745 5744 5742 5738 5734 5732 5727 5726 5720 5713 5712 5707 5704 5699 5693 5686 5679 5675 5673 5667 5663 5660 5656 5653
5808 5807 5806 5804 5802 5799 5797 5794 5789 5784 5781 5779 5775 5768 5759 5759 5755 5750 5746 5741 5737 5733 5734 5729 5725 5720 5718 5715 5712 5712 5706 5703 5695 5687 5680 5676 5671 5667 5660 5655 5651 5649 5646
5798 5796 5794 5794 5794 5791 5788 5785 5781 5777 5775 5773 5768 5762 5755 5749 5743 5738 5733 5730 5720 5715 5716 5716 5714 5711 5712 5711 5710 5710 5704 5703 5696 5685 5679 5675 5670 5662 5656 5653 5646 5642 5639
5788 5785 5785 5784 5783 5781 5778 5775 5772 5769 5768 5766 5762 5758 5753 5746 5738 5731 5721 5712 5702 5702 5706 5711 5709 5706 5705 5704 5703 5705 5700 5698 5692 5684 5676 5670 5664 5656 5649 5646 5641 5636 5632
5780 5777 5776 5775 5773 5771 5769 5767 5765 5761 5758 5758 5754 5749 5744 5739 5733 5727 5714 5702 5694 5690 5692 5700 5702 5701 5702 5703 5702 5702 5699 5695 5689 5681 5673 5666 5659 5654 5647 5642 5636 5631 5626
5774 5772 5768 5765 5763 5763 5762 5761 5759 5756 5753 5752 5750 5746 5741 5738 5730 5725 5718 5704 5696 5693 5690 5697 5701 5702 5700 5696 5696 5695 5693 5690 5683 5676 5670 5661 5653 5648 5642 5636 5629 5625 5621